Location: Poughquag
(41.6090°N, 73.6820°W)
Time: 07:28:43
(UTC-04:00)

Tiros 1 - All Passes

Search period start: 29 May 2020 00:00
Search period end: 08 June 2020 00:00
Orbit: 630 x 664 km, 48.4° (Epoch: 28 May)

Date Brightness Start Highest point End Pass type
(mag) Time Alt. Az. Time Alt. Az. Time Alt. Az.
29 May - 12:48:11 10° SSW 12:52:08 27° SE 12:56:04 10° E daylight
29 May - 14:29:18 10° WSW 14:34:02 76° NNW 14:38:44 10° ENE daylight
29 May - 16:12:20 10° WNW 16:16:43 37° N 16:21:02 10° ENE daylight
29 May - 17:55:08 10° WNW 17:59:37 43° NNE 18:04:03 10° E daylight
29 May - 19:37:23 10° WNW 19:42:01 68° SSW 19:46:36 10° SE daylight
29 May - 21:21:15 10° WSW 21:23:32 14° SW 21:25:49 10° SSW visible
30 May - 11:35:28 10° SE 11:36:30 11° SE 11:37:33 10° ESE daylight
30 May - 13:13:18 10° SW 13:17:56 55° SE 13:22:32 10° ENE daylight
30 May - 14:55:39 10° W 15:00:14 48° NNW 15:04:47 10° ENE daylight
30 May - 16:38:46 10° WNW 16:43:07 35° N 16:47:25 10° ENE daylight
30 May - 18:21:13 10° WNW 18:25:52 64° NNE 18:30:27 10° ESE daylight
30 May - 20:03:43 10° WNW 20:07:52 33° SW 20:11:58 10° SSE daylight
31 May - 11:58:14 10° S 12:02:05 25° SE 12:05:54 10° E daylight
31 May - 13:39:10 10° WSW 13:43:56 80° NNW 13:48:39 10° ENE daylight
31 May - 15:22:10 10° WNW 15:26:35 37° N 15:30:56 10° ENE daylight
31 May - 17:05:02 10° WNW 17:09:30 42° NNE 17:13:55 10° E daylight
31 May - 18:47:17 10° WNW 18:51:56 73° SSW 18:56:33 10° SE daylight
31 May - 20:30:53 10° W 20:33:30 15° SW 20:36:06 10° SSW daylight
01 Jun - 12:23:14 10° SW 12:27:51 51° SE 12:32:26 10° ENE daylight
01 Jun - 14:05:30 10° W 14:10:07 50° NNW 14:14:42 10° ENE daylight
01 Jun - 15:48:38 10° WNW 15:53:00 35° N 15:57:18 10° ENE daylight
01 Jun - 17:31:07 10° WNW 17:35:46 61° NNE 17:40:21 10° ESE daylight
01 Jun - 19:13:34 10° WNW 19:17:48 35° SW 19:22:01 10° SSE daylight
02 Jun - 11:08:18 10° S 11:12:01 23° SE 11:15:44 10° E daylight
02 Jun - 12:49:03 10° WSW 12:53:49 85° NNW 12:58:34 10° ENE daylight
02 Jun - 14:32:01 10° WNW 14:36:27 38° N 14:40:50 10° ENE daylight
02 Jun - 16:14:54 10° WNW 16:19:23 41° NNE 16:23:48 10° E daylight
02 Jun - 17:57:10 10° WNW 18:01:52 78° SSW 18:06:30 10° SE daylight
02 Jun - 19:40:35 10° W 19:43:28 16° SW 19:46:21 10° S daylight
03 Jun - 11:33:12 10° SW 11:37:46 47° SE 11:42:19 10° ENE daylight
03 Jun - 13:15:21 10° W 13:20:00 52° NNW 13:24:37 10° ENE daylight
03 Jun - 14:58:29 10° WNW 15:02:52 35° N 15:07:10 10° ENE daylight
03 Jun - 16:41:00 10° WNW 16:45:40 58° NNE 16:50:16 10° ESE daylight
03 Jun - 18:23:25 10° WNW 18:27:45 38° SW 18:32:02 10° SSE daylight
04 Jun - 10:18:23 10° S 10:21:58 21° SE 10:25:32 10° E daylight
04 Jun - 11:58:57 10° WSW 12:03:44 89° NW 12:08:29 10° ENE daylight
04 Jun - 13:41:51 10° W 13:46:19 39° N 13:50:45 10° ENE daylight
04 Jun - 15:24:47 10° WNW 15:29:15 40° N 15:33:40 10° E daylight
04 Jun - 17:07:04 10° WNW 17:11:47 83° SSW 17:16:26 10° ESE daylight
04 Jun - 18:50:18 10° W 18:53:26 18° SW 18:56:33 10° S daylight
05 Jun - 10:43:09 10° SSW 10:47:42 44° SE 10:52:13 10° ENE daylight
05 Jun - 12:25:12 10° W 12:29:52 55° NNW 12:34:32 10° ENE daylight
05 Jun - 14:08:21 10° WNW 14:12:43 35° N 14:17:03 10° ENE daylight
05 Jun - 15:50:54 10° WNW 15:55:33 56° NNE 16:00:09 10° E daylight
05 Jun - 17:33:17 10° WNW 17:37:42 42° SW 17:42:03 10° SSE daylight
06 Jun - 09:28:30 10° S 09:31:54 19° SE 09:35:19 10° E daylight
06 Jun - 11:08:50 10° WSW 11:13:38 86° SSE 11:18:24 10° ENE daylight
06 Jun - 12:51:42 10° W 12:56:11 40° N 13:00:39 10° ENE daylight
06 Jun - 14:34:40 10° WNW 14:39:08 39° N 14:43:32 10° E daylight
06 Jun - 16:16:57 10° WNW 16:21:41 88° SW 16:26:21 10° ESE daylight
06 Jun - 18:00:03 10° W 18:03:24 20° SW 18:06:43 10° S daylight
07 Jun - 09:53:08 10° SSW 09:57:37 41° SE 10:02:05 10° ENE daylight
07 Jun - 11:35:03 10° W 11:39:46 57° NNW 11:44:27 10° ENE daylight
07 Jun - 13:18:11 10° WNW 13:22:35 36° N 13:26:56 10° ENE daylight
07 Jun - 15:00:48 10° WNW 15:05:26 53° NNE 15:10:02 10° E daylight
07 Jun - 16:43:08 10° WNW 16:47:38 45° SW 16:52:04 10° SE daylight
